Tracking 25709 objects as of 23-May-2022
HD Live streaming from Space Station
objects crossing your sky now

AISTECHSAT-2

Track AISTECHSAT-2 now!
10-day predictions


NORAD ID: 43768
Int'l Code: 2018-099L
Perigee: 579.8 km
Apogee: 595.1 km
Inclination: 97.6 °
Period: 96.3 minutes
Semi major axis: 6958 km
RCS: Unknown
Launch date: December 3, 2018
Source: Spain (SPN)
Launch site: AIR FORCE WESTERN TEST RANGE (AFWTR)
aabbcc
Your satellite tracking list
Your tracking list is empty




NASA's NSSDC Master Catalog

Two Line Element Set (TLE):
1 43768U 18099L   22143.41506638  .00002989  00000-0  27356-3 0  9994
2 43768  97.6181 209.3603 0010993   1.5335 358.5918 14.95669278188940
Source of the keplerian elements: AFSPC